TimePST,TemperatureF,Dew PointF,Humidity,Sea Level PressureIn,VisibilityMPH,Wind Direction,Wind SpeedMPH,Gust SpeedMPH,PrecipitationIn,Events,Conditions,WindDirDegrees,DateUTC
12:10 AM,28.4,24.8,86,29.88,0.5,Variable,6.9,-,0.00,Fog-Snow,Light Snow,0,2012-12-11 08:10:00
12:53 AM,28.0,25.0,88,29.96,0.5,Variable,4.6,-,0.01,Fog-Snow,Light Snow,0,2012-12-11 08:53:00
1:50 AM,28.4,24.8,86,29.84,1.2,WSW,8.1,-,0.02,Snow,Light Snow,240,2012-12-11 09:50:00
1:53 AM,28.0,25.0,88,29.94,1.2,Variable,5.8,-,0.02,Snow,Light Snow,0,2012-12-11 09:53:00
2:06 AM,28.4,24.8,86,29.83,0.5,Variable,6.9,-,0.00,Fog-Snow,Light Snow,0,2012-12-11 10:06:00
2:21 AM,28.4,24.8,86,29.83,1.0,SW,6.9,-,0.00,Snow,Light Snow,230,2012-12-11 10:21:00
2:42 AM,28.4,24.8,86,29.81,0.8,WSW,9.2,17.3,0.00,Snow,Light Snow,240,2012-12-11 10:42:00
2:53 AM,28.9,25.0,85,29.90,0.5,WSW,10.4,24.2,0.00,Fog-Snow,Light Snow,240,2012-12-11 10:53:00
3:09 AM,28.4,24.8,86,29.80,0.2,WSW,9.2,19.6,0.00,Fog-Snow,Light Snow,250,2012-12-11 11:09:00
3:26 AM,28.4,24.8,86,29.79,0.2,West,8.1,21.9,0.00,Fog-Rain,Light Freezing Rain,260,2012-12-11 11:26:00
3:53 AM,28.0,25.0,88,29.86,0.2,WSW,10.4,21.9,0.00,Fog-Rain,Light Freezing Rain,240,2012-12-11 11:53:00
4:53 AM,28.0,24.1,85,29.84,0.2,Variable,6.9,18.4,0.00,Fog-Rain,Light Freezing Rain,0,2012-12-11 12:53:00
5:53 AM,28.9,26.1,89,29.80,0.2,WSW,9.2,-,0.00,Fog-Rain,Light Freezing Rain,240,2012-12-11 13:53:00
6:18 AM,28.4,26.6,93,29.70,0.8,WSW,10.4,25.3,0.00,Rain,Light Freezing Rain,240,2012-12-11 14:18:00
6:20 AM,28.4,26.6,93,29.70,1.5,Variable,6.9,25.3,0.00,Rain,Light Freezing Rain,0,2012-12-11 14:20:00
6:23 AM,28.4,26.6,93,29.70,3.0,WSW,9.2,25.3,0.00,Rain,Light Freezing Rain,240,2012-12-11 14:23:00
6:35 AM,28.4,26.6,93,29.69,2.0,WSW,9.2,24.2,0.00,,Overcast,240,2012-12-11 14:35:00
6:38 AM,28.4,26.6,93,29.69,1.2,WSW,8.1,24.2,0.00,,Overcast,240,2012-12-11 14:38:00
6:53 AM,28.9,26.1,89,29.77,0.8,WSW,9.2,18.4,0.00,,Mist,240,2012-12-11 14:53:00
7:10 AM,28.4,26.6,93,29.68,0.5,SW,12.7,28.8,0.00,Fog-Rain,Light Freezing Rain,220,2012-12-11 15:10:00
7:32 AM,28.4,24.8,86,29.68,1.0,Variable,6.9,19.6,0.00,,Mist,0,2012-12-11 15:32:00
7:37 AM,28.4,24.8,86,29.68,3.0,WSW,9.2,20.7,0.00,,Overcast,250,2012-12-11 15:37:00
7:53 AM,28.0,24.1,85,29.76,10.0,Variable,6.9,19.6,0.00,,Overcast,0,2012-12-11 15:53:00
8:01 AM,28.4,24.8,86,29.67,10.0,Variable,4.6,25.3,N/A,,Overcast,0,2012-12-11 16:01:00
8:41 AM,28.4,23.0,80,29.65,10.0,West,9.2,-,N/A,,Overcast,280,2012-12-11 16:41:00
8:53 AM,28.0,23.0,81,29.74,10.0,WSW,8.1,-,N/A,,Overcast,250,2012-12-11 16:53:00
9:53 AM,28.0,23.0,81,29.72,10.0,WSW,8.1,23.0,N/A,,Overcast,250,2012-12-11 17:53:00
10:18 AM,28.4,23.0,80,29.62,9.0,WSW,11.5,24.2,0.00,,Overcast,240,2012-12-11 18:18:00
10:36 AM,28.4,24.8,86,29.61,10.0,Variable,3.5,-,0.00,,Overcast,0,2012-12-11 18:36:00
10:53 AM,28.9,24.1,82,29.68,10.0,Variable,3.5,-,0.00,,Overcast,0,2012-12-11 18:53:00
11:48 AM,28.4,24.8,86,29.57,2.5,WSW,8.1,-,0.00,Snow,Light Snow,250,2012-12-11 19:48:00
11:53 AM,28.9,24.1,82,29.63,1.2,SW,11.5,26.5,0.00,Snow,Light Snow,230,2012-12-11 19:53:00
12:02 PM,28.4,24.8,86,29.56,1.2,SSW,12.7,27.6,0.01,Snow,Light Snow,210,2012-12-11 20:02:00
12:19 PM,28.4,24.8,86,29.55,0.8,SW,9.2,25.3,0.01,Snow,Light Snow,220,2012-12-11 20:19:00
12:33 PM,28.4,24.8,86,29.54,1.0,SW,11.5,26.5,0.01,Snow,Light Snow,230,2012-12-11 20:33:00
12:53 PM,25.0,25.0,100,29.61,1.0,SW,9.2,18.4,0.01,Snow,Light Snow,220,2012-12-11 20:53:00
1:14 PM,24.8,24.8,100,29.53,0.8,SSW,12.7,32.2,0.01,Snow,Light Snow,210,2012-12-11 21:14:00
1:35 PM,24.8,24.8,100,29.52,1.0,SSW,12.7,27.6,0.01,Snow,Light Snow,210,2012-12-11 21:35:00
1:42 PM,24.8,24.8,100,29.53,0.8,SW,12.7,27.6,0.01,Snow,Light Snow,220,2012-12-11 21:42:00
1:53 PM,25.0,24.1,96,29.61,0.8,SW,13.8,26.5,0.01,Snow,Light Snow,230,2012-12-11 21:53:00
2:01 PM,24.8,24.8,100,29.53,0.8,SW,10.4,26.5,0.00,Snow,Light Snow,220,2012-12-11 22:01:00
2:38 PM,24.8,24.8,100,29.52,0.2,Variable,6.9,21.9,0.01,Fog-Snow,Snow,0,2012-12-11 22:38:00
2:53 PM,25.0,25.0,100,29.60,0.2,SW,9.2,-,0.02,Fog-Snow,Snow,230,2012-12-11 22:53:00
3:17 PM,24.8,24.8,100,29.51,0.5,Variable,6.9,-,0.01,Fog-Snow,Light Snow,0,2012-12-11 23:17:00
3:53 PM,25.0,24.1,96,29.59,0.8,SW,8.1,18.4,0.02,Snow,Light Snow,230,2012-12-11 23:53:00
4:44 PM,24.8,24.8,100,29.51,1.0,Variable,4.6,-,0.01,Snow,Light Snow,0,2012-12-12 00:44:00
4:53 PM,25.0,24.1,96,29.58,1.0,Variable,3.5,-,0.02,Snow,Light Snow,0,2012-12-12 00:53:00
5:00 PM,24.8,24.8,100,29.50,0.5,SW,5.8,-,0.00,Fog-Snow,Snow,230,2012-12-12 01:00:00
5:21 PM,24.8,24.8,100,29.49,1.2,Variable,4.6,-,0.01,Snow,Light Snow,0,2012-12-12 01:21:00
5:36 PM,24.8,24.8,100,29.49,1.0,Variable,4.6,-,0.01,Snow,Light Snow,0,2012-12-12 01:36:00
5:46 PM,24.8,24.8,100,29.48,1.0,Variable,6.9,-,0.02,Snow,Light Snow,0,2012-12-12 01:46:00
5:51 PM,24.8,24.8,100,29.48,0.8,Variable,4.6,-,0.02,Snow,Light Snow,0,2012-12-12 01:51:00
5:53 PM,25.0,24.1,96,29.56,0.8,Variable,5.8,-,0.02,Snow,Light Snow,0,2012-12-12 01:53:00
6:03 PM,24.8,24.8,100,29.48,1.0,SW,4.6,-,0.00,Snow,Light Snow,220,2012-12-12 02:03:00
6:46 PM,24.8,24.8,100,29.48,0.8,Calm,Calm,-,0.02,Snow,Light Snow,0,2012-12-12 02:46:00
6:53 PM,25.0,25.0,100,29.56,0.8,Variable,3.5,-,0.03,Snow,Light Snow,0,2012-12-12 02:53:00
7:42 PM,24.8,24.8,100,29.47,0.5,SW,3.5,-,0.06,Fog-Snow,Snow,220,2012-12-12 03:42:00
7:51 PM,24.8,24.8,100,29.47,1.5,Variable,5.8,-,0.06,Snow,Light Snow,0,2012-12-12 03:51:00
7:53 PM,25.0,24.1,96,29.55,1.8,Variable,4.6,-,0.06,Snow,Light Snow,0,2012-12-12 03:53:00
8:00 PM,24.8,23.0,93,29.47,2.0,Variable,4.6,-,0.00,Snow,Light Snow,0,2012-12-12 04:00:00
8:07 PM,24.8,24.8,100,29.47,1.5,SW,8.1,-,0.01,Snow,Light Snow,230,2012-12-12 04:07:00
8:13 PM,24.8,24.8,100,29.46,1.2,Variable,6.9,-,0.01,Snow,Light Snow,0,2012-12-12 04:13:00
8:20 PM,24.8,24.8,100,29.46,1.5,SW,5.8,-,0.01,Snow,Light Snow,230,2012-12-12 04:20:00
8:41 PM,24.8,24.8,100,29.46,1.8,Variable,3.5,-,0.01,Snow,Light Snow,0,2012-12-12 04:41:00
8:53 PM,24.1,24.1,100,29.55,2.0,SW,4.6,-,0.01,Snow,Light Snow,220,2012-12-12 04:53:00
8:57 PM,24.8,24.8,100,29.46,1.8,Variable,3.5,-,0.00,Snow,Light Snow,0,2012-12-12 04:57:00
9:19 PM,24.8,24.8,100,29.45,1.0,Variable,4.6,-,0.01,Snow,Light Snow,0,2012-12-12 05:19:00
9:35 PM,24.8,24.8,100,29.45,1.5,Calm,Calm,-,0.01,Snow,Light Snow,0,2012-12-12 05:35:00
9:53 PM,24.1,24.1,100,29.55,1.8,Variable,3.5,-,0.01,Snow,Light Snow,0,2012-12-12 05:53:00
10:33 PM,24.8,24.8,100,29.46,1.0,Variable,3.5,-,0.01,Snow,Light Snow,0,2012-12-12 06:33:00
10:46 PM,24.8,24.8,100,29.46,0.8,Variable,3.5,-,0.02,Snow,Light Snow,0,2012-12-12 06:46:00
10:53 PM,24.1,24.1,100,29.54,0.8,SW,4.6,-,0.02,Snow,Light Snow,230,2012-12-12 06:53:00
11:04 PM,24.8,24.8,100,29.46,1.5,Variable,5.8,-,0.00,Snow,Light Snow,0,2012-12-12 07:04:00
11:08 PM,24.8,24.8,100,29.45,3.0,Variable,5.8,-,0.00,,Overcast,0,2012-12-12 07:08:00
11:15 PM,24.8,24.8,100,29.45,4.0,SW,6.9,-,0.00,Rain,Light Freezing Rain,220,2012-12-12 07:15:00
11:25 PM,24.8,24.8,100,29.45,1.8,Variable,5.8,-,0.00,Rain,Light Freezing Rain,0,2012-12-12 07:25:00
11:34 PM,24.8,24.8,100,29.45,2.5,Variable,4.6,-,0.00,Rain,Light Freezing Rain,0,2012-12-12 07:34:00
11:41 PM,24.8,24.8,100,29.46,3.0,Variable,4.6,-,0.00,Rain,Light Freezing Rain,0,2012-12-12 07:41:00
11:48 PM,24.8,24.8,100,29.45,2.5,Variable,5.8,-,0.01,Snow,Light Snow,0,2012-12-12 07:48:00
11:53 PM,25.0,24.1,96,29.53,2.5,Variable,5.8,-,0.01,Snow,Light Snow,0,2012-12-12 07:53:00